Location: St. Louis
(38.6270°N, 90.1994°W)
Time: 04:59:17
(UTC-05:00)

OPS 7613 P/L 1 - Pass Details

Date: 11 July 2022
Orbit: 887 x 911 km, 70.0° (Epoch: 10 August)

Event Time Altitude Azimuth Distance (km) Brightness Sun altitude
Rises 04:22:25 0° 329° (NNW) 3,502 11.6 -13.9°
Reaches altitude 10° 04:24:59 10° 324° (NW) 2,557 10.8 -13.5°
Maximum altitude 04:30:35 46° 253° (WSW) 1,173 8.6 -12.7°
Drops below altitude 10° 04:36:08 10° 181° (S) 2,540 10.3 -11.9°
Sets 04:38:41 0° 175° (S) 3,476 11.0 -11.5°
